Content
SEND FEEDBACK

Daily
Averages
Monthly
Summary
United States of America

CHICAGO, ILLINOIS


Home > North America > United States > Illinois
Elevation: 674 feet     Latitude: 41 59N     Longitude: 087 54W

WEATHER
 
SELECT A DAY
Number of Records: 194,962;   Date Range: 7/8/95 - 8/12/14
 
SHARE

PRINT THIS DATA

[ ← Previous Day ]
WEATHER ALMANAC - MARCH 23, 2014
[ Next Day → ]
[ °C ]   °F
Weather ElementAverageHighLow
Temperature24.4 °F30.9 °F (3:52 pm)19.9 °F (6:52 am)
Dewpoint9.3 °F12.9 °F (9:52 pm)7 °F (8:52 am)
Humidity53.8 %71 % (10:52 pm)38 % (3:52 pm)
Barometer30.42 in30.48 in (9:52 am)30.39 in (1:52 am)
Wind Speed8.8 mph15 mph (4:52 am)
Wind Gust21.9 mph (4:52 am)
Weather ElementAverage
Visibility10 mi
Wind DirectionW (273.6 °)

Weather ElementTotal
Precipitation---
Heating Degree Days39.6 (Base 65)
Averaged from 25 records on March 23, 2014
WEATHER CONDITIONS BREAKOUT
WIND DIRECTION BREAKOUT
WEATHER BY HOUR - MARCH 23, 2014
[ °C ]   °F
Local TimeTemperatureDewpointHumidityBarometerVisibilityWind DirectionWind SpeedGust SpeedPrecipitationEventsConditions
1:52 AM25.0 °F9.0 °F51 %30.39 in10.0 miNorth (350°)12.7 mphClear
2:52 AM23.0 °F10.0 °F58 %30.39 in10.0 miNNW (340°)10.4 mphClear
3:52 AM23.0 °F10.0 °F58 %30.40 in10.0 miNNW (330°)11.5 mphClear
4:52 AM21.9 °F9.0 °F58 %30.42 in10.0 miNNW (340°)15.0 mph21.9 mphClear
5:52 AM21.0 °F9.0 °F60 %30.43 in10.0 miNNW (340°)10.4 mphMostly Cloudy
6:52 AM19.9 °F8.1 °F60 %30.45 in10.0 miNNW (340°)11.5 mph20.7 mphOvercast
7:17 AM19.9 °F9.0 °F62 %30.42 in10.0 miNNW (340°)9.2 mphMostly Cloudy
7:24 AM19.9 °F9.0 °F62 %30.42 in10.0 miNorth (350°)11.5 mphScattered Clouds
7:52 AM21.0 °F9.0 °F60 %30.46 in10.0 miNorth (360°)12.7 mphClear
8:52 AM21.9 °F7.0 °F53 %30.47 in10.0 miNorth (350°)12.7 mph18.4 mphClear
9:52 AM24.1 °F8.1 °F51 %30.48 in10.0 miNNW (330°)9.2 mphClear
10:52 AM26.1 °F9.0 °F49 %30.47 in10.0 miNNW (330°)9.2 mphClear
11:52 AM26.1 °F9.0 °F49 %30.46 in10.0 miNW (310°)8.1 mphMostly Cloudy
12:52 PM28.0 °F8.1 °F43 %30.45 in10.0 miWest (280°)10.4 mphPartly Cloudy
1:52 PM28.9 °F7.0 °F40 %30.43 in10.0 miWNW (300°)9.2 mph19.6 mphClear
2:52 PM30.0 °F8.1 °F40 %30.41 in10.0 miVariable4.6 mph18.4 mphClear
3:52 PM30.9 °F8.1 °F38 %30.40 in10.0 miNorth (360°)10.4 mphPartly Cloudy
4:52 PM30.0 °F7.0 °F38 %30.40 in10.0 miNW (310°)9.2 mphMostly Cloudy
5:52 PM28.0 °F8.1 °F43 %30.41 in10.0 miWNW (300°)11.5 mphScattered Clouds
6:52 PM27.0 °F8.1 °F45 %30.41 in10.0 miNorth (350°)4.6 mphMostly Cloudy
7:52 PM24.1 °F12.0 °F60 %30.40 in10.0 miESE (110°)4.6 mphClear
8:52 PM24.1 °F12.0 °F60 %30.40 in10.0 miESE (120°)3.5 mphClear
9:52 PM23.0 °F12.9 °F65 %30.40 in10.0 miSE (140°)4.6 mphClear
10:52 PM21.0 °F12.9 °F71 %30.40 in10.0 miCalmClear
11:52 PM21.0 °F12.9 °F71 %30.40 in10.0 miSSE (160°)3.5 mphClear
Hourly data recorded from KPWK, located miles away from Chicago, Illinois







STORIES FROM OUR PARTNERS